| time (UTC) | temp C | wind direction | speed KPH | gust KPH | rain 1hr cm | rain 24hr cm | rain mn cm | humidity % | barometer mb |
| 20260505200639 | 22 | 234 | 4.8 | 14.5 | 0.00 | 0.00 | 0.00 | 54 | 1003.5 |
| 20260505200311 | 22 | 226 | 4.8 | 16.1 | 0.00 | 0.00 | 0.00 | 55 | 1003.5 |
| 20260505200245 | 22 | 224 | 6.4 | 16.1 | 0.00 | 0.00 | 0.00 | 55 | 1003.5 |
| 20260505195818 | 22 | 229 | 4.8 | 17.7 | 0.00 | 0.00 | 0.00 | 55 | 1003.4 |
| 20260505195739 | 22 | 229 | 4.8 | 17.7 | 0.00 | 0.00 | 0.00 | 55 | 1003.4 |
| 20260505195345 | 22 | 223 | 4.8 | 17.7 | 0.00 | 0.00 | 0.00 | 55 | 1003.5 |
| 20260505195211 | 22 | 229 | 4.8 | 17.7 | 0.00 | 0.00 | 0.00 | 55 | 1003.4 |
| 20260505194839 | 22 | 231 | 6.4 | 17.7 | 0.00 | 0.00 | 0.00 | 55 | 1003.5 |
| 20260505194445 | 22 | 238 | 6.4 | 30.6 | 0.00 | 0.00 | 0.00 | 55 | 1003.5 |
| 20260505194110 | 22 | 231 | 6.4 | 30.6 | 0.00 | 0.00 | 0.00 | 54 | 1003.6 |
| 20260505193940 | 22 | 229 | 6.4 | 30.6 | 0.00 | 0.00 | 0.00 | 54 | 1003.5 |
| 20260505193545 | 22 | 227 | 6.4 | 25.7 | 0.00 | 0.00 | 0.00 | 55 | 1003.7 |
| 20260505193044 | 22 | 235 | 6.4 | 22.5 | 0.00 | 0.00 | 0.00 | 54 | 1003.7 |
| 20260505193011 | 22 | 235 | 6.4 | 22.5 | 0.00 | 0.00 | 0.00 | 54 | 1003.7 |
| 20260505192645 | 23 | 240 | 4.8 | 16.1 | 0.00 | 0.00 | 0.00 | 53 | 1003.9 |
| 20260505192139 | 23 | 237 | 4.8 | 14.5 | 0.00 | 0.00 | 0.00 | 55 | 1004.1 |
| 20260505191911 | 23 | 239 | 6.4 | 19.3 | 0.00 | 0.00 | 0.00 | 54 | 1004.0 |
| 20260505191745 | 23 | 238 | 6.4 | 19.3 | 0.00 | 0.00 | 0.00 | 54 | 1004.0 |
| 20260505191238 | 23 | 229 | 6.4 | 19.3 | 0.00 | 0.00 | 0.00 | 53 | 1004.0 |
| 20260505190811 | 23 | 230 | 4.8 | 20.9 | 0.00 | 0.00 | 0.00 | 53 | 1004.0 |
| 20260505190340 | 23 | 237 | 4.8 | 20.9 | 0.00 | 0.00 | 0.00 | 52 | 1004.1 |
| 20260505185710 | 23 | 233 | 4.8 | 17.7 | 0.00 | 0.00 | 0.00 | 53 | 1004.0 |
| 20260505185439 | 23 | 234 | 4.8 | 17.7 | 0.00 | 0.00 | 0.00 | 53 | 1004.2 |
| 20260505185045 | 23 | 223 | 4.8 | 17.7 | 0.00 | 0.00 | 0.00 | 53 | 1004.2 |
| 20260505184609 | 23 | 231 | 6.4 | 20.9 | 0.00 | 0.00 | 0.00 | 54 | 1004.2 |
| 20260505184539 | 23 | 229 | 6.4 | 20.9 | 0.00 | 0.00 | 0.00 | 54 | 1004.2 |
| 20260505184145 | 22 | 238 | 8.0 | 24.1 | 0.00 | 0.00 | 0.00 | 53 | 1004.1 |
| 20260505183639 | 23 | 236 | 6.4 | 24.1 | 0.00 | 0.00 | 0.00 | 53 | 1004.2 |
| 20260505183511 | 23 | 239 | 4.8 | 24.1 | 0.00 | 0.00 | 0.00 | 52 | 1004.3 |
| 20260505182740 | 23 | 239 | 3.2 | 19.3 | 0.00 | 0.00 | 0.00 | 52 | 1004.3 |
| 20260505182410 | 23 | 235 | 4.8 | 19.3 | 0.00 | 0.00 | 0.00 | 52 | 1004.4 |
| 20260505182345 | 23 | 235 | 4.8 | 19.3 | 0.00 | 0.00 | 0.00 | 52 | 1004.4 |
| 20260505181923 | 23 | 227 | 4.8 | 16.1 | 0.00 | 0.00 | 0.00 | 54 | 1004.4 |
| 20260505181840 | 23 | 227 | 4.8 | 16.1 | 0.00 | 0.00 | 0.00 | 54 | 1004.4 |
| 20260505181445 | 23 | 231 | 6.4 | 16.1 | 0.00 | 0.00 | 0.00 | 54 | 1004.4 |
| 20260505181310 | 22 | 229 | 6.4 | 16.1 | 0.00 | 0.00 | 0.00 | 54 | 1004.4 |
| 20260505180939 | 22 | 234 | 6.4 | 20.9 | 0.00 | 0.00 | 0.00 | 55 | 1004.3 |
| 20260505180545 | 22 | 233 | 6.4 | 20.9 | 0.00 | 0.00 | 0.00 | 54 | 1004.5 |
| 20260505180211 | 22 | 233 | 6.4 | 20.9 | 0.00 | 0.00 | 0.00 | 54 | 1004.4 |
| 20260505180038 | 22 | 235 | 6.4 | 20.9 | 0.00 | 0.00 | 0.00 | 55 | 1004.4 |
| 20260505175645 | 22 | 238 | 6.4 | 19.3 | 0.00 | 0.00 | 0.00 | 55 | 1004.4 |
| 20260505175141 | 22 | 249 | 6.4 | 20.9 | 0.00 | 0.00 | 0.00 | 54 | 1004.6 |
| 20260505175110 | 22 | 249 | 6.4 | 20.9 | 0.00 | 0.00 | 0.00 | 54 | 1004.6 |
| 20260505174745 | 22 | 246 | 6.4 | 20.9 | 0.00 | 0.03 | 0.00 | 55 | 1004.6 |
| 20260505174239 | 22 | 241 | 6.4 | 20.9 | 0.00 | 0.00 | 0.00 | 55 | 1004.7 |
| 20260505174011 | 22 | 236 | 6.4 | 17.7 | 0.00 | 0.00 | 0.00 | 55 | 1004.7 |
| 20260505173845 | 22 | 230 | 6.4 | 17.7 | 0.00 | 0.03 | 0.00 | 54 | 1004.8 |
| 20260505173340 | 22 | 225 | 4.8 | 16.1 | 0.00 | 0.00 | 0.00 | 56 | 1004.9 |
| 20260505172945 | 21 | 236 | 4.8 | 16.1 | 0.00 | 0.03 | 0.00 | 56 | 1005.0 |
| 20260505172910 | 21 | 237 | 4.8 | 16.1 | 0.00 | 0.00 | 0.00 | 56 | 1005.0 |
| 20260505172439 | 21 | 242 | 4.8 | 16.1 | 0.00 | 0.03 | 0.00 | 55 | 1005.1 |
| 20260505171811 | 21 | 237 | 4.8 | 17.7 | 0.00 | 0.03 | 0.00 | 56 | 1005.2 |
| 20260505171538 | 21 | 233 | 4.8 | 17.7 | 0.00 | 0.03 | 0.00 | 55 | 1005.3 |
| 20260505171145 | 22 | 233 | 4.8 | 14.5 | 0.00 | 0.08 | 0.00 | 55 | 1005.3 |
| 20260505170710 | 22 | 230 | 6.4 | 14.5 | 0.00 | 0.05 | 0.00 | 56 | 1005.2 |
| 20260505170637 | 22 | 237 | 4.8 | 14.5 | 0.00 | 0.05 | 0.00 | 55 | 1005.2 |
| 20260505170245 | 22 | 243 | 4.8 | 17.7 | 0.00 | 0.08 | 0.00 | 54 | 1005.2 |
| 20260505165739 | 22 | 239 | 4.8 | 17.7 | 0.00 | 0.05 | 0.00 | 55 | 1005.4 |
| 20260505165610 | 22 | 236 | 4.8 | 17.7 | 0.00 | 0.05 | 0.00 | 54 | 1005.3 |
| 20260505165345 | 22 | 229 | 3.2 | 12.9 | 0.00 | 0.08 | 0.00 | 55 | 1005.3 |
| 20260505164838 | 22 | 233 | 3.2 | 14.5 | 0.00 | 0.05 | 0.00 | 54 | 1005.5 |
| 20260505164510 | 22 | 221 | 4.8 | 16.1 | 0.00 | 0.05 | 0.00 | 55 | 1005.5 |
| 20260505163938 | 22 | 226 | 4.8 | 16.1 | 0.00 | 0.05 | 0.00 | 56 | 1005.5 |
| 20260505163410 | 21 | 240 | 3.2 | 16.1 | 0.00 | 0.05 | 0.00 | 54 | 1005.6 |
| 20260505163037 | 22 | 242 | 3.2 | 16.1 | 0.00 | 0.05 | 0.00 | 55 | 1005.6 |
| 20260505162644 | 21 | 236 | 3.2 | 14.5 | 0.00 | 0.08 | 0.00 | 56 | 1005.7 |
| 20260505162310 | 21 | 231 | 4.8 | 14.5 | 0.00 | 0.05 | 0.00 | 56 | 1005.8 |
| 20260505162139 | 21 | 232 | 4.8 | 16.1 | 0.00 | 0.05 | 0.00 | 58 | 1005.8 |
| 20260505161744 | 21 | 237 | 4.8 | 16.1 | 0.00 | 0.08 | 0.00 | 55 | 1005.8 |
| 20260505161240 | 21 | 230 | 4.8 | 20.9 | 0.00 | 0.05 | 0.00 | 56 | 1005.9 |
| 20260505161209 | 21 | 230 | 4.8 | 20.9 | 0.00 | 0.05 | 0.00 | 56 | 1005.9 |
| 20260505160844 | 21 | 230 | 4.8 | 20.9 | 0.00 | 0.08 | 0.00 | 56 | 1005.9 |
| 20260505160339 | 22 | 226 | 4.8 | 20.9 | 0.00 | 0.05 | 0.00 | 54 | 1006.3 |
| 20260505160110 | 22 | 225 | 4.8 | 12.9 | 0.00 | 0.05 | 0.00 | 54 | 1006.3 |
| 20260505153244 | 21 | 208 | 4.8 | 12.9 | 0.00 | 0.08 | 0.00 | 57 | 1006.3 |
| 20260505152809 | 20 | 209 | 4.8 | 12.9 | 0.00 | 0.05 | 0.00 | 58 | 1006.4 |
| 20260505152742 | 20 | 209 | 4.8 | 12.9 | 0.00 | 0.05 | 0.00 | 56 | 1006.4 |
| 20260505152344 | 21 | 209 | 3.2 | 14.5 | 0.00 | 0.08 | 0.00 | 56 | 1006.4 |
| 20260505151839 | 21 | 240 | 4.8 | 16.1 | 0.00 | 0.05 | 0.00 | 56 | 1006.4 |
| 20260505151710 | 21 | 240 | 4.8 | 16.1 | 0.00 | 0.05 | 0.00 | 56 | 1006.4 |
| 20260505151444 | 21 | 239 | 3.2 | 16.1 | 0.00 | 0.08 | 0.00 | 56 | 1006.4 |
| 20260505150938 | 20 | 225 | 3.2 | 16.1 | 0.00 | 0.05 | 0.00 | 56 | 1006.4 |
| 20260505150608 | 20 | 222 | 3.2 | 12.9 | 0.00 | 0.05 | 0.00 | 56 | 1006.4 |
| 20260505150544 | 20 | 222 | 3.2 | 12.9 | 0.00 | 0.08 | 0.00 | 56 | 1006.4 |
| 20260505140637 | 19 | 224 | 1.6 | 9.7 | 0.00 | 0.05 | 0.00 | 57 | 1006.4 |
| 20260505140244 | 18 | 230 | 1.6 | 11.3 | 0.00 | 0.08 | 0.00 | 59 | 1006.5 |
| 20260505124538 | 16 | 250 | 1.6 | 14.5 | 0.00 | 0.05 | 0.00 | 64 | 1007.0 |
| 20260505124308 | 16 | 226 | 1.6 | 14.5 | 0.00 | 0.05 | 0.00 | 64 | 1006.9 |
| 20260505124143 | 16 | 204 | 1.6 | 14.5 | 0.00 | 0.08 | 0.00 | 64 | 1007.0 |
| 20260505123723 | 15 | 238 | 1.6 | 20.9 | 0.00 | 0.05 | 0.00 | 65 | 1007.0 |
| 20260505123637 | 15 | 238 | 1.6 | 20.9 | 0.00 | 0.05 | 0.00 | 65 | 1007.0 |
| 20260505123209 | 15 | 250 | 1.6 | 20.9 | 0.00 | 0.05 | 0.00 | 65 | 1007.1 |
| 20260505122739 | 15 | 0 | 0.0 | 0.0 | 0.00 | 0.05 | 0.00 | 65 | 1007.0 |
| 20260505122343 | 15 | 0 | 0.0 | 0.0 | 0.00 | 0.08 | 0.00 | 66 | 1007.1 |
| 20260505122108 | 15 | 0 | 0.0 | 0.0 | 0.00 | 0.05 | 0.00 | 67 | 1007.1 |
| 20260505121838 | 15 | 0 | 0.0 | 0.0 | 0.00 | 0.05 | 0.00 | 67 | 1007.1 |
| 20260505121443 | 15 | 0 | 0.0 | 0.0 | 0.00 | 0.08 | 0.00 | 67 | 1007.2 |
| 20260505121008 | 15 | 0 | 0.0 | 0.0 | 0.00 | 0.05 | 0.00 | 68 | 1007.3 |
| 20260505120936 | 15 | 0 | 0.0 | 0.0 | 0.00 | 0.05 | 0.00 | 68 | 1007.3 |
| 20260505120035 | 14 | 274 | 0.0 | 1.6 | 0.00 | 0.05 | 0.00 | 69 | 1007.2 |
| 20260505115908 | 14 | 245 | 0.0 | 11.3 | 0.00 | 0.05 | 0.00 | 70 | 1007.2 |
| 20260505115643 | 13 | 248 | 1.6 | 16.1 | 0.00 | 0.08 | 0.00 | 70 | 1007.2 |
| 20260505115136 | 13 | 248 | 1.6 | 16.1 | 0.00 | 0.05 | 0.00 | 70 | 1007.2 |
| 20260505114809 | 13 | 248 | 0.0 | 11.3 | 0.00 | 0.05 | 0.00 | 71 | 1007.2 |
| 20260505114743 | 13 | 248 | 0.0 | 11.3 | 0.00 | 0.08 | 0.00 | 71 | 1007.2 |
| 20260505114237 | 13 | 248 | 0.0 | 11.3 | 0.00 | 0.05 | 0.00 | 72 | 1007.2 |
| 20260505113845 | 13 | 0 | 0.0 | 0.0 | 0.00 | 0.08 | 0.00 | 73 | 1007.3 |
| 20260505113708 | 13 | 0 | 0.0 | 0.0 | 0.00 | 0.05 | 0.00 | 73 | 1007.3 |
| 20260505113335 | 12 | 0 | 0.0 | 0.0 | 0.00 | 0.05 | 0.00 | 74 | 1007.3 |
| 20260505112943 | 12 | 0 | 0.0 | 0.0 | 0.00 | 0.08 | 0.00 | 75 | 1007.4 |
| 20260505112608 | 12 | 0 | 0.0 | 0.0 | 0.00 | 0.05 | 0.00 | 75 | 1007.4 |
| 20260505112437 | 12 | 0 | 0.0 | 0.0 | 0.00 | 0.05 | 0.00 | 75 | 1007.4 |
| 20260505112043 | 12 | 0 | 0.0 | 0.0 | 0.00 | 0.08 | 0.00 | 75 | 1007.3 |
| 20260505111539 | 12 | 89 | 0.0 | 1.6 | 0.00 | 0.05 | 0.00 | 76 | 1007.4 |
| 20260505111508 | 12 | 89 | 0.0 | 1.6 | 0.00 | 0.05 | 0.00 | 76 | 1007.4 |
| 20260505111143 | 11 | 89 | 0.0 | 1.6 | 0.00 | 0.08 | 0.00 | 76 | 1007.4 |
| 20260505110636 | 11 | 0 | 0.0 | 0.0 | 0.00 | 0.05 | 0.00 | 77 | 1007.3 |
| 20260505110409 | 11 | 0 | 0.0 | 0.0 | 0.00 | 0.05 | 0.00 | 77 | 1007.3 |
| 20260505102009 | 10 | 0 | 0.0 | 0.0 | 0.00 | 0.05 | 0.00 | 79 | 1007.3 |
| 20260505101238 | 10 | 0 | 0.0 | 0.0 | 0.00 | 0.05 | 0.00 | 81 | 1007.3 |
| 20260505100908 | 10 | 0 | 0.0 | 0.0 | 0.00 | 0.05 | 0.00 | 80 | 1007.3 |
| 20260505100842 | 10 | 0 | 0.0 | 0.0 | 0.00 | 0.08 | 0.00 | 80 | 1007.3 |
| 20260505100336 | 10 | 0 | 0.0 | 0.0 | 0.00 | 0.05 | 0.00 | 81 | 1007.3 |
| 20260505095942 | 10 | 0 | 0.0 | 0.0 | 0.00 | 0.08 | 0.00 | 81 | 1007.1 |
| 20260505095808 | 10 | 0 | 0.0 | 0.0 | 0.00 | 0.05 | 0.00 | 81 | 1007.3 |
| 20260505095437 | 10 | 0 | 0.0 | 0.0 | 0.00 | 0.05 | 0.00 | 81 | 1007.2 |
| 20260505095042 | 9 | 0 | 0.0 | 0.0 | 0.00 | 0.08 | 0.00 | 81 | 1007.2 |
| 20260505094707 | 9 | 0 | 0.0 | 0.0 | 0.00 | 0.05 | 0.00 | 81 | 1007.2 |
| 20260505094142 | 9 | 0 | 0.0 | 0.0 | 0.00 | 0.08 | 0.00 | 81 | 1007.1 |
| 20260505093640 | 9 | 0 | 0.0 | 0.0 | 0.00 | 0.05 | 0.00 | 81 | 1007.2 |
| 20260505093608 | 9 | 0 | 0.0 | 0.0 | 0.00 | 0.05 | 0.00 | 81 | 1007.2 |
| 20260505093242 | 9 | 0 | 0.0 | 0.0 | 0.00 | 0.08 | 0.00 | 81 | 1007.2 |
| 20260505092739 | 9 | 0 | 0.0 | 0.0 | 0.00 | 0.05 | 0.00 | 82 | 1007.1 |
| 20260505092508 | 9 | 0 | 0.0 | 0.0 | 0.00 | 0.05 | 0.00 | 82 | 1007.1 |
| 20260505092342 | 9 | 0 | 0.0 | 0.0 | 0.00 | 0.08 | 0.00 | 82 | 1007.1 |
| 20260505091836 | 8 | 0 | 0.0 | 0.0 | 0.00 | 0.05 | 0.00 | 82 | 1007.2 |
| 20260505091442 | 8 | 0 | 0.0 | 0.0 | 0.00 | 0.08 | 0.00 | 82 | 1007.2 |
| 20260505091408 | 8 | 0 | 0.0 | 0.0 | 0.00 | 0.05 | 0.00 | 82 | 1007.1 |
| 20260505090935 | 8 | 201 | 0.0 | 1.6 | 0.00 | 0.05 | 0.00 | 83 | 1007.2 |
| 20260505090542 | 8 | 201 | 0.0 | 1.6 | 0.00 | 0.08 | 0.00 | 83 | 1007.2 |
| 20260505090307 | 8 | 201 | 0.0 | 1.6 | 0.00 | 0.05 | 0.00 | 83 | 1007.2 |
| 20260505090036 | 8 | 0 | 0.0 | 0.0 | 0.00 | 0.05 | 0.00 | 83 | 1007.2 |
| 20260505085208 | 8 | 0 | 0.0 | 0.0 | 0.00 | 0.05 | 0.00 | 83 | 1007.2 |
| 20260505084742 | 8 | 0 | 0.0 | 0.0 | 0.00 | 0.08 | 0.00 | 84 | 1007.2 |
| 20260505084237 | 8 | 0 | 0.0 | 0.0 | 0.00 | 0.05 | 0.00 | 84 | 1007.2 |
| 20260505084107 | 8 | 0 | 0.0 | 0.0 | 0.00 | 0.05 | 0.00 | 84 | 1007.2 |
| 20260505083336 | 8 | 0 | 0.0 | 0.0 | 0.00 | 0.05 | 0.00 | 84 | 1007.2 |
| 20260505083007 | 8 | 0 | 0.0 | 0.0 | 0.00 | 0.05 | 0.00 | 84 | 1007.2 |
| 20260505082942 | 8 | 0 | 0.0 | 0.0 | 0.00 | 0.08 | 0.00 | 84 | 1007.2 |
| 20260505082437 | 8 | 0 | 0.0 | 0.0 | 0.00 | 0.05 | 0.00 | 84 | 1007.2 |
| 20260505082042 | 8 | 0 | 0.0 | 0.0 | 0.00 | 0.08 | 0.00 | 84 | 1007.2 |
| 20260505081907 | 8 | 0 | 0.0 | 0.0 | 0.00 | 0.05 | 0.00 | 83 | 1007.2 |
| 20260505081535 | 8 | 0 | 0.0 | 0.0 | 0.00 | 0.05 | 0.00 | 83 | 1007.2 |
| 20260505081142 | 8 | 0 | 0.0 | 0.0 | 0.00 | 0.08 | 0.00 | 83 | 1007.2 |
| 20260505080807 | 8 | 0 | 0.0 | 0.0 | 0.00 | 0.05 | 0.00 | 83 | 1007.3 |
| 20260505080635 | 8 | 0 | 0.0 | 0.0 | 0.00 | 0.05 | 0.00 | 83 | 1007.3 |
| 20260505075738 | 8 | 0 | 0.0 | 0.0 | 0.00 | 0.05 | 0.00 | 83 | 1007.3 |
| 20260505075707 | 8 | 0 | 0.0 | 0.0 | 0.00 | 0.05 | 0.00 | 83 | 1007.3 |
| 20260505075342 | 8 | 0 | 0.0 | 0.0 | 0.00 | 0.08 | 0.00 | 83 | 1007.3 |
| 20260505074835 | 8 | 0 | 0.0 | 0.0 | 0.00 | 0.05 | 0.00 | 83 | 1007.4 |
| 20260505074607 | 8 | 0 | 0.0 | 0.0 | 0.00 | 0.05 | 0.00 | 83 | 1007.4 |
| 20260505074442 | 8 | 0 | 0.0 | 0.0 | 0.00 | 0.08 | 0.00 | 83 | 1007.4 |
| 20260505073935 | 8 | 0 | 0.0 | 0.0 | 0.00 | 0.05 | 0.00 | 84 | 1007.3 |
| 20260505073542 | 8 | 0 | 0.0 | 0.0 | 0.00 | 0.08 | 0.00 | 84 | 1007.3 |
| 20260505073507 | 8 | 0 | 0.0 | 0.0 | 0.00 | 0.05 | 0.00 | 84 | 1007.3 |
| 20260505073037 | 8 | 0 | 0.0 | 0.0 | 0.00 | 0.05 | 0.00 | 84 | 1007.3 |
| 20260505072642 | 8 | 0 | 0.0 | 0.0 | 0.00 | 0.08 | 0.00 | 84 | 1007.3 |
| 20260505072407 | 8 | 0 | 0.0 | 0.0 | 0.00 | 0.05 | 0.00 | 84 | 1007.4 |
| 20260505071306 | 8 | 0 | 0.0 | 0.0 | 0.00 | 0.05 | 0.00 | 84 | 1007.3 |
| 20260505071236 | 8 | 0 | 0.0 | 0.0 | 0.00 | 0.05 | 0.00 | 84 | 1007.3 |
| 20260505070335 | 7 | 0 | 0.0 | 0.0 | 0.00 | 0.05 | 0.00 | 85 | 1007.2 |
| 20260505070207 | 7 | 0 | 0.0 | 0.0 | 0.00 | 0.05 | 0.00 | 85 | 1007.2 |
| 20260505065942 | 7 | 0 | 0.0 | 0.0 | 0.00 | 0.08 | 0.00 | 85 | 1007.1 |
| 20260505065436 | 7 | 0 | 0.0 | 0.0 | 0.00 | 0.05 | 0.00 | 85 | 1007.1 |
| 20260505065106 | 7 | 0 | 0.0 | 0.0 | 0.00 | 0.05 | 0.00 | 85 | 1007.2 |
| 20260505064535 | 7 | 0 | 0.0 | 0.0 | 0.00 | 0.05 | 0.00 | 85 | 1007.1 |
| 20260505064142 | 7 | 0 | 0.0 | 0.0 | 0.00 | 0.08 | 0.00 | 85 | 1007.2 |
| 20260505064006 | 7 | 0 | 0.0 | 0.0 | 0.00 | 0.05 | 0.00 | 85 | 1007.1 |
| 20260505063636 | 7 | 0 | 0.0 | 0.0 | 0.00 | 0.05 | 0.00 | 85 | 1007.1 |
| 20260505062907 | 7 | 225 | 0.0 | 1.6 | 0.00 | 0.05 | 0.00 | 84 | 1007.2 |
| 20260505062735 | 8 | 225 | 0.0 | 1.6 | 0.00 | 0.05 | 0.00 | 84 | 1007.2 |
| 20260505062341 | 8 | 225 | 0.0 | 1.6 | 0.00 | 0.08 | 0.00 | 84 | 1007.1 |
| 20260505061842 | 8 | 166 | 0.0 | 4.8 | 0.00 | 0.05 | 0.00 | 84 | 1007.1 |
| 20260505061807 | 8 | 166 | 0.0 | 4.8 | 0.00 | 0.05 | 0.00 | 84 | 1007.1 |
| 20260505061441 | 8 | 166 | 0.0 | 4.8 | 0.00 | 0.08 | 0.00 | 84 | 1007.1 |
| 20260505060935 | 8 | 0 | 0.0 | 0.0 | 0.00 | 0.05 | 0.00 | 84 | 1007.1 |
| 20260505060707 | 8 | 0 | 0.0 | 0.0 | 0.00 | 0.05 | 0.00 | 84 | 1007.1 |
| 20260505060036 | 8 | 0 | 0.0 | 0.0 | 0.00 | 0.05 | 0.00 | 84 | 1007.1 |
| 20260505055641 | 8 | 0 | 0.0 | 0.0 | 0.00 | 0.08 | 0.00 | 84 | 1007.1 |
| 20260505055607 | 8 | 0 | 0.0 | 0.0 | 0.00 | 0.05 | 0.00 | 84 | 1007.2 |
| 20260505055135 | 8 | 0 | 0.0 | 0.0 | 0.00 | 0.05 | 0.00 | 83 | 1007.2 |
| 20260505054741 | 8 | 0 | 0.0 | 0.0 | 0.00 | 0.08 | 0.00 | 83 | 1007.2 |
| 20260505054506 | 8 | 0 | 0.0 | 0.0 | 0.00 | 0.05 | 0.00 | 83 | 1007.2 |
| 20260505054236 | 8 | 0 | 0.0 | 0.0 | 0.00 | 0.05 | 0.00 | 83 | 1007.1 |
| 20260505053406 | 8 | 0 | 0.0 | 0.0 | 0.00 | 0.05 | 0.00 | 82 | 1007.1 |
| 20260505053336 | 8 | 0 | 0.0 | 0.0 | 0.00 | 0.05 | 0.00 | 83 | 1007.1 |
| 20260505052941 | 8 | 0 | 0.0 | 0.0 | 0.00 | 0.08 | 0.00 | 83 | 1007.1 |
| 20260505052435 | 8 | 0 | 0.0 | 0.0 | 0.00 | 0.05 | 0.00 | 82 | 1007.0 |
| 20260505052307 | 8 | 0 | 0.0 | 0.0 | 0.00 | 0.05 | 0.00 | 82 | 1007.1 |
| 20260505052041 | 8 | 0 | 0.0 | 0.0 | 0.00 | 0.08 | 0.00 | 82 | 1007.0 |
| 20260505051537 | 8 | 211 | 0.0 | 3.2 | 0.00 | 0.05 | 0.00 | 81 | 1007.0 |
| 20260505051207 | 9 | 211 | 0.0 | 3.2 | 0.00 | 0.05 | 0.00 | 81 | 1007.0 |
| 20260505051141 | 9 | 211 | 0.0 | 3.2 | 0.00 | 0.08 | 0.00 | 81 | 1007.0 |
| 20260505050635 | 9 | 229 | 1.6 | 9.7 | 0.00 | 0.05 | 0.00 | 81 | 1006.9 |
| 20260505050241 | 9 | 232 | 1.6 | 9.7 | 0.00 | 0.08 | 0.00 | 80 | 1007.0 |
| 20260505050106 | 9 | 235 | 1.6 | 9.7 | 0.00 | 0.05 | 0.00 | 80 | 1006.9 |
| 20260505041705 | 10 | 0 | 0.0 | 0.0 | 0.00 | 0.05 | 0.00 | 80 | 1006.7 |
| 20260505041235 | 10 | 0 | 0.0 | 0.0 | 0.00 | 0.05 | 0.00 | 79 | 1006.6 |
| 20260505040841 | 10 | 0 | 0.0 | 0.0 | 0.00 | 0.08 | 0.00 | 79 | 1006.7 |
| 20260505040606 | 10 | 0 | 0.0 | 0.0 | 0.00 | 0.05 | 0.00 | 79 | 1006.7 |
| 20260505040335 | 10 | 0 | 0.0 | 0.0 | 0.00 | 0.05 | 0.00 | 79 | 1006.6 |
| 20260505035941 | 10 | 0 | 0.0 | 0.0 | 0.00 | 0.08 | 0.08 | 79 | 1006.6 |
| 20260505035507 | 10 | 0 | 0.0 | 0.0 | 0.00 | 0.05 | 0.08 | 79 | 1006.6 |
| 20260505035434 | 10 | 0 | 0.0 | 0.0 | 0.00 | 0.05 | 0.08 | 79 | 1006.6 |
| 20260505035041 | 10 | 0 | 0.0 | 0.0 | 0.00 | 0.08 | 0.08 | 79 | 1006.6 |
| 20260505034536 | 10 | 0 | 0.0 | 0.0 | 0.00 | 0.05 | 0.08 | 79 | 1006.5 |
| 20260505034406 | 10 | 0 | 0.0 | 0.0 | 0.00 | 0.05 | 0.08 | 79 | 1006.5 |
| 20260505034141 | 9 | 0 | 0.0 | 0.0 | 0.00 | 0.08 | 0.08 | 79 | 1006.5 |
| 20260505033635 | 9 | 0 | 0.0 | 0.0 | 0.00 | 0.05 | 0.08 | 79 | 1006.5 |
| 20260505033305 | 9 | 0 | 0.0 | 0.0 | 0.00 | 0.05 | 0.08 | 79 | 1006.5 |
| 20260505033240 | 9 | 0 | 0.0 | 0.0 | 0.00 | 0.08 | 0.08 | 79 | 1006.5 |
| 20260505032734 | 10 | 0 | 0.0 | 0.0 | 0.00 | 0.05 | 0.08 | 78 | 1006.5 |
| 20260505032340 | 10 | 0 | 0.0 | 0.0 | 0.00 | 0.08 | 0.08 | 78 | 1006.5 |
| 20260505032206 | 10 | 0 | 0.0 | 0.0 | 0.00 | 0.05 | 0.08 | 78 | 1006.5 |
| 20260505031835 | 10 | 0 | 0.0 | 0.0 | 0.00 | 0.05 | 0.08 | 78 | 1006.5 |
| 20260505031440 | 10 | 0 | 0.0 | 0.0 | 0.00 | 0.08 | 0.08 | 78 | 1006.5 |
| 20260505031105 | 10 | 171 | 0.0 | 1.6 | 0.00 | 0.05 | 0.08 | 78 | 1006.5 |
| 20260505030935 | 10 | 171 | 0.0 | 1.6 | 0.00 | 0.05 | 0.08 | 78 | 1006.6 |
| 20260505030540 | 10 | 171 | 0.0 | 1.6 | 0.00 | 0.08 | 0.08 | 78 | 1006.6 |
| 20260505030036 | 10 | 0 | 0.0 | 0.0 | 0.00 | 0.05 | 0.08 | 78 | 1006.6 |
| 20260505030005 | 10 | 0 | 0.0 | 0.0 | 0.00 | 0.05 | 0.08 | 78 | 1006.6 |
| 20260505025640 | 10 | 0 | 0.0 | 0.0 | 0.00 | 0.08 | 0.08 | 79 | 1006.6 |
| 20260505025137 | 9 | 0 | 0.0 | 0.0 | 0.00 | 0.05 | 0.08 | 80 | 1006.5 |
| 20260505024905 | 9 | 0 | 0.0 | 0.0 | 0.00 | 0.05 | 0.08 | 80 | 1006.5 |
| 20260505024740 | 9 | 0 | 0.0 | 0.0 | 0.00 | 0.08 | 0.08 | 81 | 1006.5 |
| 20260505024233 | 9 | 0 | 0.0 | 0.0 | 0.00 | 0.05 | 0.08 | 81 | 1006.5 |
| 20260505023840 | 9 | 0 | 0.0 | 0.0 | 0.00 | 0.08 | 0.08 | 82 | 1006.5 |
| 20260505023805 | 9 | 0 | 0.0 | 0.0 | 0.00 | 0.05 | 0.08 | 81 | 1006.6 |
| 20260505023333 | 9 | 0 | 0.0 | 0.0 | 0.00 | 0.05 | 0.08 | 81 | 1006.5 |
| 20260505022940 | 10 | 0 | 0.0 | 0.0 | 0.00 | 0.08 | 0.08 | 81 | 1006.5 |
| 20260505022705 | 10 | 0 | 0.0 | 0.0 | 0.00 | 0.05 | 0.08 | 81 | 1006.5 |
| 20260505022435 | 10 | 0 | 0.0 | 0.0 | 0.00 | 0.05 | 0.08 | 81 | 1006.5 |
| 20260505022040 | 10 | 0 | 0.0 | 0.0 | 0.00 | 0.08 | 0.08 | 81 | 1006.5 |
| 20260505021606 | 10 | 0 | 0.0 | 0.0 | 0.00 | 0.05 | 0.08 | 80 | 1006.6 |
| 20260505021534 | 10 | 0 | 0.0 | 0.0 | 0.00 | 0.05 | 0.08 | 80 | 1006.6 |
| 20260505021140 | 10 | 0 | 0.0 | 0.0 | 0.00 | 0.08 | 0.08 | 81 | 1006.6 |
| 20260505020634 | 10 | 0 | 0.0 | 0.0 | 0.00 | 0.05 | 0.08 | 81 | 1006.5 |
| 20260505020506 | 10 | 0 | 0.0 | 0.0 | 0.00 | 0.05 | 0.08 | 81 | 1006.6 |
| 20260505020240 | 10 | 0 | 0.0 | 0.0 | 0.00 | 0.08 | 0.08 | 81 | 1006.5 |
| 20260505015734 | 10 | 0 | 0.0 | 0.0 | 0.00 | 0.05 | 0.08 | 82 | 1006.6 |
| 20260505015404 | 10 | 0 | 0.0 | 0.0 | 0.00 | 0.05 | 0.08 | 82 | 1006.6 |
| 20260505015340 | 10 | 0 | 0.0 | 0.0 | 0.00 | 0.08 | 0.08 | 82 | 1006.6 |
| 20260505014834 | 9 | 0 | 0.0 | 0.0 | 0.00 | 0.05 | 0.08 | 82 | 1006.4 |
| 20260505014440 | 9 | 0 | 0.0 | 0.0 | 0.00 | 0.08 | 0.08 | 82 | 1006.5 |
| 20260505014307 | 9 | 0 | 0.0 | 0.0 | 0.00 | 0.05 | 0.08 | 82 | 1006.4 |
| 20260505013934 | 9 | 0 | 0.0 | 0.0 | 0.00 | 0.05 | 0.08 | 81 | 1006.4 |
| 20260505013206 | 9 | 0 | 0.0 | 0.0 | 0.00 | 0.05 | 0.08 | 80 | 1006.3 |
| 20260505013035 | 9 | 0 | 0.0 | 0.0 | 0.00 | 0.05 | 0.08 | 80 | 1006.3 |
| 20260505012640 | 9 | 0 | 0.0 | 0.0 | 0.00 | 0.08 | 0.08 | 80 | 1006.3 |
| 20260505012137 | 10 | 0 | 0.0 | 0.0 | 0.00 | 0.05 | 0.08 | 79 | 1006.5 |
| 20260505012105 | 10 | 0 | 0.0 | 0.0 | 0.00 | 0.05 | 0.08 | 79 | 1006.5 |
| 20260505011740 | 10 | 0 | 0.0 | 0.0 | 0.00 | 0.08 | 0.08 | 79 | 1006.4 |
| 20260505011234 | 10 | 0 | 0.0 | 0.0 | 0.00 | 0.05 | 0.08 | 79 | 1006.3 |
| 20260505011005 | 10 | 0 | 0.0 | 0.0 | 0.00 | 0.05 | 0.08 | 79 | 1006.3 |
| 20260505010840 | 10 | 0 | 0.0 | 0.0 | 0.00 | 0.08 | 0.08 | 79 | 1006.3 |
| 20260505010333 | 10 | 0 | 0.0 | 0.0 | 0.00 | 0.05 | 0.08 | 79 | 1006.2 |
| 20260505005940 | 10 | 0 | 0.0 | 0.0 | 0.00 | 0.08 | 0.08 | 78 | 1006.2 |
| 20260505005904 | 10 | 0 | 0.0 | 0.0 | 0.00 | 0.05 | 0.08 | 78 | 1006.2 |
| 20260505005434 | 10 | 0 | 0.0 | 0.0 | 0.00 | 0.05 | 0.08 | 78 | 1006.1 |
| 20260505005040 | 10 | 0 | 0.0 | 0.0 | 0.00 | 0.08 | 0.08 | 77 | 1006.1 |
| 20260505004804 | 10 | 0 | 0.0 | 0.0 | 0.00 | 0.05 | 0.08 | 77 | 1006.1 |
| 20260505004533 | 10 | 0 | 0.0 | 0.0 | 0.00 | 0.05 | 0.08 | 77 | 1006.1 |
| 20260505004140 | 10 | 0 | 0.0 | 0.0 | 0.00 | 0.08 | 0.08 | 77 | 1006.0 |
| 20260505003704 | 10 | 0 | 0.0 | 0.0 | 0.00 | 0.05 | 0.08 | 77 | 1005.8 |
| 20260505003634 | 11 | 0 | 0.0 | 0.0 | 0.00 | 0.05 | 0.08 | 77 | 1005.8 |
| 20260505002734 | 11 | 0 | 0.0 | 0.0 | 0.00 | 0.05 | 0.08 | 75 | 1005.7 |
| 20260505002604 | 11 | 0 | 0.0 | 0.0 | 0.00 | 0.05 | 0.08 | 75 | 1005.7 |
| 20260505002339 | 11 | 0 | 0.0 | 0.0 | 0.00 | 0.08 | 0.08 | 74 | 1005.5 |
| 20260505001834 | 11 | 0 | 0.0 | 0.0 | 0.00 | 0.05 | 0.08 | 74 | 1005.5 |
| 20260505001504 | 11 | 0 | 0.0 | 0.0 | 0.00 | 0.05 | 0.08 | 73 | 1005.4 |
| 20260505000933 | 11 | 0 | 0.0 | 0.0 | 0.00 | 0.05 | 0.08 | 72 | 1005.3 |
| 20260505000539 | 11 | 0 | 0.0 | 0.0 | 0.00 | 0.08 | 0.08 | 72 | 1005.3 |
| 20260505000405 | 12 | 0 | 0.0 | 0.0 | 0.00 | 0.05 | 0.08 | 72 | 1005.3 |
| 20260505000032 | 12 | 0 | 0.0 | 0.0 | 0.00 | 0.05 | 0.08 | 72 | 1005.3 |
| 20260504235639 | 12 | 0 | 0.0 | 0.0 | 0.00 | 0.08 | 0.08 | 71 | 1005.3 |
| 20260504235305 | 12 | 0 | 0.0 | 0.0 | 0.00 | 0.05 | 0.08 | 70 | 1005.2 |
| 20260504235133 | 12 | 0 | 0.0 | 0.0 | 0.00 | 0.05 | 0.08 | 70 | 1005.2 |
| 20260504234739 | 12 | 0 | 0.0 | 0.0 | 0.00 | 0.08 | 0.08 | 70 | 1005.2 |
| 20260504234235 | 13 | 0 | 0.0 | 0.0 | 0.00 | 0.05 | 0.08 | 69 | 1005.1 |
| 20260504234204 | 13 | 0 | 0.0 | 0.0 | 0.00 | 0.05 | 0.08 | 69 | 1005.1 |
| 20260504233839 | 13 | 0 | 0.0 | 0.0 | 0.00 | 0.08 | 0.08 | 69 | 1005.0 |
| 20260504233332 | 13 | 0 | 0.0 | 0.0 | 0.00 | 0.05 | 0.08 | 67 | 1004.9 |
| 20260504233105 | 13 | 0 | 0.0 | 0.0 | 0.00 | 0.05 | 0.08 | 67 | 1004.9 |
| 20260504232434 | 14 | 171 | 0.0 | 3.2 | 0.00 | 0.05 | 0.08 | 65 | 1004.8 |
| 20260504232004 | 14 | 171 | 0.0 | 3.2 | 0.00 | 0.05 | 0.08 | 64 | 1004.8 |
| 20260504231533 | 15 | 172 | 0.0 | 3.2 | 0.00 | 0.05 | 0.08 | 63 | 1004.8 |
| 20260504231139 | 15 | 168 | 0.0 | 3.2 | 0.00 | 0.08 | 0.08 | 62 | 1004.8 |
| 20260504230905 | 15 | 166 | 0.0 | 3.2 | 0.00 | 0.05 | 0.08 | 60 | 1004.8 |
| 20260504230633 | 15 | 166 | 0.0 | 6.4 | 0.00 | 0.05 | 0.08 | 60 | 1004.8 |
| 20260504230239 | 15 | 175 | 1.6 | 8.0 | 0.00 | 0.08 | 0.08 | 61 | 1004.8 |
| 20260504225804 | 15 | 174 | 1.6 | 8.0 | 0.00 | 0.05 | 0.08 | 59 | 1004.7 |
| 20260504225733 | 15 | 173 | 1.6 | 8.0 | 0.00 | 0.05 | 0.08 | 59 | 1004.7 |
| 20260504224834 | 16 | 170 | 1.6 | 9.7 | 0.00 | 0.05 | 0.08 | 58 | 1004.6 |
| 20260504224704 | 16 | 178 | 1.6 | 9.7 | 0.00 | 0.05 | 0.08 | 58 | 1004.7 |
| 20260504223933 | 16 | 219 | 0.0 | 6.4 | 0.00 | 0.05 | 0.08 | 58 | 1004.6 |
| 20260504223605 | 16 | 230 | 0.0 | 3.2 | 0.00 | 0.05 | 0.08 | 60 | 1004.6 |
| 20260504223539 | 16 | 228 | 0.0 | 3.2 | 0.00 | 0.08 | 0.08 | 60 | 1004.6 |
| 20260504223032 | 16 | 171 | 1.6 | 8.0 | 0.00 | 0.05 | 0.08 | 60 | 1004.6 |
| 20260504222639 | 16 | 178 | 1.6 | 8.0 | 0.00 | 0.08 | 0.08 | 58 | 1004.6 |
| 20260504222504 | 16 | 191 | 1.6 | 8.0 | 0.00 | 0.05 | 0.08 | 59 | 1004.5 |
| 20260504222133 | 16 | 118 | 1.6 | 8.0 | 0.00 | 0.05 | 0.08 | 60 | 1004.5 |
| 20260504221405 | 16 | 127 | 1.6 | 8.0 | 0.00 | 0.05 | 0.08 | 60 | 1004.6 |
| 20260504221233 | 16 | 133 | 1.6 | 6.4 | 0.00 | 0.05 | 0.08 | 58 | 1004.6 |
| 20260504220839 | 16 | 186 | 1.6 | 9.7 | 0.00 | 0.08 | 0.08 | 59 | 1004.5 |
| 20260504220336 | 16 | 182 | 3.2 | 9.7 | 0.00 | 0.05 | 0.08 | 59 | 1004.6 |
| 20260504220305 | 16 | 182 | 3.2 | 9.7 | 0.00 | 0.05 | 0.08 | 59 | 1004.6 |
| 20260504215939 | 16 | 184 | 3.2 | 8.0 | 0.00 | 0.08 | 0.08 | 58 | 1004.5 |
| 20260504215432 | 16 | 184 | 3.2 | 11.3 | 0.00 | 0.05 | 0.08 | 59 | 1004.6 |
| 20260504215204 | 16 | 190 | 3.2 | 11.3 | 0.00 | 0.05 | 0.08 | 59 | 1004.6 |
| 20260504215039 | 16 | 185 | 3.2 | 14.5 | 0.00 | 0.08 | 0.08 | 58 | 1004.6 |
| 20260504214533 | 16 | 188 | 4.8 | 14.5 | 0.00 | 0.05 | 0.08 | 59 | 1004.6 |
| 20260504214139 | 16 | 187 | 4.8 | 14.5 | 0.00 | 0.08 | 0.08 | 58 | 1004.7 |
| 20260504214104 | 16 | 189 | 4.8 | 14.5 | 0.00 | 0.05 | 0.08 | 58 | 1004.7 |
| 20260504213633 | 16 | 201 | 3.2 | 14.5 | 0.00 | 0.05 | 0.08 | 58 | 1004.6 |
| 20260504213005 | 16 | 207 | 3.2 | 11.3 | 0.00 | 0.05 | 0.08 | 58 | 1004.5 |
| 20260504212734 | 16 | 197 | 3.2 | 14.5 | 0.00 | 0.05 | 0.08 | 58 | 1004.5 |
| 20260504212339 | 16 | 188 | 3.2 | 14.5 | 0.00 | 0.08 | 0.08 | 60 | 1004.6 |
| 20260504211904 | 16 | 178 | 1.6 | 14.5 | 0.00 | 0.05 | 0.08 | 58 | 1004.5 |
| 20260504211833 | 16 | 179 | 1.6 | 8.0 | 0.00 | 0.05 | 0.08 | 58 | 1004.5 |
| 20260504211439 | 16 | 192 | 3.2 | 11.3 | 0.00 | 0.08 | 0.08 | 57 | 1004.4 |
| 20260504210931 | 16 | 198 | 3.2 | 11.3 | 0.00 | 0.05 | 0.08 | 57 | 1004.4 |
| 20260504210804 | 16 | 200 | 3.2 | 11.3 | 0.00 | 0.05 | 0.08 | 57 | 1004.4 |
| 20260504210538 | 16 | 200 | 3.2 | 11.3 | 0.00 | 0.08 | 0.08 | 59 | 1004.3 |
| 20260504210115 | 16 | 196 | 3.2 | 14.5 | 0.00 | 0.05 | 0.08 | 59 | 1004.4 |
| 20260504210032 | 16 | 196 | 3.2 | 14.5 | 0.00 | 0.05 | 0.08 | 59 | 1004.4 |
| 20260504205705 | 16 | 198 | 3.2 | 14.5 | 0.00 | 0.05 | 0.08 | 58 | 1004.2 |
| 20260504205638 | 16 | 199 | 3.2 | 14.5 | 0.00 | 0.08 | 0.08 | 58 | 1004.2 |
| 20260504205134 | 17 | 141 | 0.0 | 14.5 | 0.00 | 0.05 | 0.08 | 58 | 1004.3 |
| 20260504204603 | 16 | 172 | 3.2 | 12.9 | 0.00 | 0.05 | 0.08 | 59 | 1004.2 |
| 20260504204232 | 16 | 172 | 3.2 | 12.9 | 0.00 | 0.05 | 0.08 | 60 | 1004.2 |
| 20260504203838 | 16 | 166 | 1.6 | 12.9 | 0.00 | 0.08 | 0.08 | 62 | 1004.3 |
| 20260504203503 | 16 | 190 | 0.0 | 8.0 | 0.00 | 0.05 | 0.08 | 62 | 1004.3 |
| 20260504203332 | 16 | 190 | 0.0 | 8.0 | 0.00 | 0.05 | 0.08 | 62 | 1004.4 |
| 20260504202938 | 16 | 205 | 0.0 | 3.2 | 0.00 | 0.08 | 0.08 | 62 | 1004.4 |
| 20260504202434 | 16 | 159 | 0.0 | 1.6 | 0.00 | 0.05 | 0.08 | 62 | 1004.3 |
| 20260504202403 | 16 | 159 | 0.0 | 1.6 | 0.00 | 0.05 | 0.08 | 62 | 1004.3 |
| 20260504202038 | 16 | 159 | 0.0 | 1.6 | 0.00 | 0.08 | 0.08 | 62 | 1004.3 |
| 20260504201304 | 16 | 199 | 3.2 | 16.1 | 0.00 | 0.05 | 0.08 | 60 | 1004.4 |
| 20260504201138 | 16 | 199 | 3.2 | 16.1 | 0.00 | 0.08 | 0.08 | 60 | 1004.3 |